CDT,Max TemperatureF,Mean TemperatureF,Min TemperatureF,Max Dew PointF,MeanDew PointF,Min DewpointF,Max Humidity, Mean Humidity, Min Humidity, Max Sea Level PressureIn, Mean Sea Level PressureIn, Min Sea Level PressureIn, Max VisibilityMiles, Mean VisibilityMiles, Min VisibilityMiles, Max Wind SpeedMPH, Mean Wind SpeedMPH, Max Gust SpeedMPH,PrecipitationIn, CloudCover, Events, WindDirDegrees
2013-3-1,24,10,-5,5,-5,-11,77,51,22,30.41,30.37,30.30,10,10,10,7,2,,0.00,0,,45
2013-3-2,26,3,-20,-2,-13,-26,84,51,17,30.33,30.24,30.13,10,10,2,4,0,,0.00,0,,20
2013-3-3,33,16,-2,9,1,-9,92,52,25,30.13,30.06,30.00,10,10,10,8,2,,0.00,4,,133
2013-3-4,30,19,8,18,10,0,93,67,40,30.10,30.04,30.00,10,9,1,13,5,21,0.00,5,Snow,91
2013-3-5,21,19,17,18,15,10,93,85,63,30.28,30.18,30.07,10,4,0,9,5,,0.04,8,Snow,36
2013-3-6,24,10,-5,16,6,-9,93,81,59,30.35,30.31,30.28,10,9,2,10,2,17,0.01,5,Snow,295
2013-3-7,32,10,-13,16,4,-18,92,70,48,30.37,30.32,30.26,10,10,4,9,2,,0.00,2,,126
2013-3-8,30,20,10,25,19,9,100,85,69,30.29,30.21,30.10,10,8,5,8,3,,0.00,6,,177
2013-3-9,33,30,26,32,28,23,100,93,86,30.08,29.86,29.73,10,3,0,6,1,,0.12,7,Snow,108
2013-3-10,30,24,19,28,22,16,100,87,74,30.05,29.97,29.80,10,9,4,9,4,,0.00,8,,345
2013-3-11,24,20,17,18,16,16,93,85,74,30.00,29.83,29.74,10,10,7,9,4,,0.00,8,Snow,9
2013-3-12,21,14,3,16,8,-2,100,75,46,30.13,29.93,29.76,10,9,2,12,4,22,0.00,3,Snow,336
2013-3-13,30,10,-11,10,1,-17,92,67,40,30.27,30.21,30.13,10,10,10,9,1,,0.00,0,,273
2013-3-14,37,18,0,28,16,-4,92,77,65,30.16,30.04,29.95,10,10,5,12,3,,0.00,6,Snow,233
2013-3-15,30,19,8,27,9,-4,92,68,36,30.05,30.00,29.96,10,8,1,9,6,16,0.00,6,Snow,18
2013-3-16,14,4,-11,7,-1,-15,92,74,52,30.20,30.07,30.01,10,8,1,18,4,24,0.00,5,Snow,298
2013-3-17,23,-1,-25,12,-9,-33,84,60,36,30.24,30.08,29.84,10,10,10,13,3,17,0.00,3,,149
2013-3-18,26,20,15,21,17,10,93,84,63,29.84,29.56,29.43,10,4,0,18,9,25,0.02,8,Snow,166
2013-3-19,19,12,6,10,3,-2,92,69,49,30.01,29.83,29.59,10,6,2,25,17,34,0.00,4,Snow,290
2013-3-20,17,9,1,5,0,-4,85,68,49,30.08,30.04,30.00,10,9,2,15,10,20,0.00,5,Snow,306
2013-3-21,28,17,6,10,7,0,79,67,47,30.08,30.03,30.00,10,10,7,8,2,,0.00,4,Snow,323
2013-3-22,33,13,-7,18,7,-13,92,74,52,30.07,30.05,30.02,10,10,10,5,1,,0.00,3,,13
2013-3-23,37,18,0,19,12,-4,92,70,45,30.13,30.09,30.06,10,10,10,6,1,,0.00,5,,332
2013-3-24,28,24,19,19,17,12,74,68,59,30.12,30.08,30.05,10,10,10,8,2,,0.00,7,Snow,20
2013-3-25,37,18,0,19,12,-4,92,67,41,30.19,30.13,30.09,10,10,10,10,2,17,0.00,3,,346
2013-3-26,37,29,21,25,19,16,86,66,41,30.25,30.23,30.19,10,10,10,8,1,,0.00,8,Snow,309
2013-3-27,41,31,19,21,17,12,86,60,33,30.30,30.28,30.25,10,10,10,8,0,,0.00,5,,278
2013-3-28,44,25,6,19,13,5,93,61,27,30.31,30.27,30.22,10,10,10,8,0,,0.00,0,,294
2013-3-29,50,31,12,30,21,10,93,63,34,30.25,30.15,30.00,10,10,10,12,2,,0.00,2,,177
2013-3-30,51,40,30,36,28,18,100,64,32,29.99,29.83,29.75,10,8,0,13,4,18,0.00,4,Fog-Rain,275
2013-3-31,33,27,21,28,16,7,93,65,43,30.01,29.81,29.68,10,9,1,20,10,26,0.00,7,Snow,305